Date String (YYYY-MM-DD hh:mm:ss) UTC,Instrument flags,Ambient pressure (hPa),Sample flow (lpm),Bypass flow (lpm),Sample temperature (°C),Ambient temperature (°C),ASC tube jacket temperature (°C),LED temperature (°C),Box temperature (°C),Sample RH (%),Span deviation,Mass concentration (μg/m³),Mass concentration (μg/m³),Mass concentration (μg/m³)
DateTimeUTC,F1_M11,P_M11,Q1_M11,Q2_M11,T1_M11,T2_M11,T3_M11,T4_M11,T5_M11,U1_M11,ZSPAN_M11,X0_M11,X2_M11,X1_M11
2022-02-09 22:00:00,,0825.7,5.01,0.00,27.9,27.2,00.0,36.8,29.7,10.1,0000.0,0010.91,0004.08,0003.61
2022-02-09 22:01:00,,0825.7,4.99,0.00,27.9,27.2,00.0,36.8,29.7,10.1,0000.0,0011.26,0004.08,0003.62
2022-02-09 22:02:00,,0825.7,4.99,0.00,27.9,27.2,00.0,36.8,29.7,10.1,0000.0,0011.64,0004.09,0003.62
2022-02-09 22:03:00,,0825.7,5.02,0.00,27.9,27.2,00.0,36.8,29.7,10.1,0000.0,0012.28,0004.12,0003.63
2022-02-09 22:04:00,,0825.7,5.00,0.00,27.9,27.2,00.0,36.8,29.7,10.0,0000.0,0012.58,0004.19,0003.63
2022-02-09 22:05:00,,0825.7,4.99,0.00,27.9,27.2,00.0,36.8,29.8,10.1,0000.0,0012.82,0004.23,0003.64
2022-02-09 22:06:00,,0825.7,5.01,0.00,27.9,27.2,00.0,36.8,29.8,10.1,0000.0,0012.88,0004.26,0003.63
2022-02-09 22:07:00,,0825.7,4.99,0.00,27.9,27.2,00.0,36.8,29.8,10.2,0000.0,0012.40,0004.26,0003.64
2022-02-09 22:08:00,,0825.7,5.01,0.00,27.9,27.2,00.0,36.8,29.7,10.1,0000.0,0012.60,0004.29,0003.65
2022-02-09 22:09:00,,0825.6,5.00,0.00,27.9,27.1,00.0,36.8,29.7,10.0,0000.0,0012.01,0004.29,0003.65
2022-02-09 22:10:00,,0825.7,5.00,0.00,27.9,27.1,00.0,36.8,29.7,10.0,0000.0,0011.76,0004.33,0003.66
2022-02-09 22:11:00,,0825.6,5.02,0.00,27.9,27.1,00.0,36.8,29.7,10.0,0000.0,0011.21,0004.36,0003.67
2022-02-09 22:12:00,,0825.6,5.00,0.00,27.9,27.1,00.0,36.8,29.6,10.1,0000.0,0011.61,0004.36,0003.67
2022-02-09 22:13:00,,0825.7,5.00,0.00,27.8,27.0,00.0,36.8,29.6,10.0,0000.0,0011.36,0004.39,0003.66
2022-02-09 22:14:00,,0825.7,5.02,0.00,27.8,27.0,00.0,36.8,29.6,09.9,0000.0,0010.74,0004.39,0003.67
2022-02-09 22:15:00,,0825.7,4.99,0.00,27.8,27.0,00.0,36.8,29.6,10.0,0000.0,0010.60,0004.37,0003.68
2022-02-09 22:16:00,,0825.7,5.00,0.00,27.8,27.0,00.0,36.8,29.6,10.1,0000.0,0010.54,0004.33,0003.68
2022-02-09 22:17:00,,0825.7,5.01,0.00,27.8,27.0,00.0,36.8,29.6,10.1,0000.0,0010.36,0004.34,0003.70
2022-02-09 22:18:00,,0825.7,4.99,0.00,27.8,27.0,00.0,36.8,29.6,10.2,0000.0,0010.55,0004.39,0003.72
2022-02-09 22:19:00,,0825.7,5.01,0.00,27.8,27.0,00.0,36.8,29.6,10.2,0000.0,0011.05,0004.39,0003.73
2022-02-09 22:20:00,,0825.7,4.99,0.00,27.8,27.0,00.0,36.8,29.6,10.2,0000.0,0010.90,0004.40,0003.75
2022-02-09 22:21:00,,0825.7,5.00,0.00,27.8,27.0,00.0,36.8,29.6,10.2,0000.0,0010.53,0004.39,0003.76
2022-02-09 22:22:00,,0825.7,5.02,0.00,27.8,27.0,00.0,36.8,29.6,10.3,0000.0,0010.51,0004.35,0003.77
2022-02-09 22:23:00,,0825.7,5.00,0.00,27.8,27.0,00.0,36.8,29.5,10.3,0000.0,0010.53,0004.37,0003.79
2022-02-09 22:24:00,,0825.7,4.99,0.00,27.8,27.0,00.0,36.8,29.5,10.1,0000.0,0011.15,0004.35,0003.80
2022-02-09 22:25:00,,0825.8,5.01,0.00,27.7,26.9,00.0,36.8,29.5,10.2,0000.0,0011.04,0004.37,0003.82
2022-02-09 22:26:00,,0825.8,4.98,0.00,27.7,26.9,00.0,36.7,29.5,10.3,0000.0,0011.15,0004.41,0003.83
2022-02-09 22:27:00,,0825.9,5.00,0.00,27.7,26.9,00.0,36.7,29.5,10.3,0000.0,0011.37,0004.50,0003.85
2022-02-09 22:28:00,,0825.9,5.01,0.00,27.7,26.9,00.0,36.7,29.4,10.3,0000.0,0011.25,0004.51,0003.87
2022-02-09 22:29:00,,0825.9,4.99,0.00,27.7,27.0,00.0,36.7,29.5,10.4,0000.0,0011.27,0004.49,0003.89
2022-02-09 22:30:00,,0825.9,4.99,0.00,27.7,27.0,00.0,36.7,29.5,10.5,0000.0,0010.82,0004.53,0003.91
2022-02-09 22:31:00,,0825.9,5.00,0.00,27.7,27.0,00.0,36.7,29.5,10.6,0000.0,0010.76,0004.57,0003.91
2022-02-09 22:32:00,,0825.9,5.02,0.00,27.7,27.0,00.0,36.7,29.4,10.5,0000.0,0010.65,0004.55,0003.92
2022-02-09 22:33:00,,0825.8,4.99,0.00,27.7,27.0,00.0,36.7,29.5,10.6,0000.0,0010.41,0004.58,0003.94
2022-02-09 22:34:00,,0825.8,5.00,0.00,27.7,27.0,00.0,36.7,29.4,10.5,0000.0,0009.51,0004.56,0003.94
2022-02-09 22:35:00,,0825.9,4.99,0.00,27.7,27.0,00.0,36.7,29.4,10.6,0000.0,0009.01,0004.60,0003.95
2022-02-09 22:36:00,,0826.0,5.01,0.00,27.7,27.0,00.0,36.7,29.4,10.6,0000.0,0009.45,0004.62,0003.97
2022-02-09 22:37:00,,0826.0,5.01,0.00,27.7,26.9,00.0,36.7,29.4,10.6,0000.0,0009.58,0004.60,0003.97
2022-02-09 22:38:00,,0826.1,4.99,0.00,27.7,26.9,00.0,36.7,29.4,10.6,0000.0,0009.75,0004.61,0003.97
2022-02-09 22:39:00,,0826.0,5.00,0.00,27.7,26.9,00.0,36.7,29.4,10.5,0000.0,0009.70,0004.62,0003.97
2022-02-09 22:40:00,,0826.0,5.01,0.00,27.7,26.9,00.0,36.7,29.5,10.4,0000.0,0010.13,0004.63,0003.97
2022-02-09 22:41:00,,0826.1,4.99,0.00,27.7,26.9,00.0,36.7,29.4,10.3,0000.0,0010.19,0004.62,0003.98
2022-02-09 22:42:00,,0826.0,4.99,0.00,27.7,26.9,00.0,36.6,29.5,10.3,0000.0,0010.33,0004.63,0004.00
2022-02-09 22:43:00,,0826.0,5.02,0.00,27.7,26.9,00.0,36.6,29.4,10.4,0000.0,0010.45,0004.65,0004.01
2022-02-09 22:44:00,,0826.0,5.00,0.00,27.6,26.9,00.0,36.6,29.4,10.4,0000.0,0011.01,0004.70,0004.02
2022-02-09 22:45:00,,0826.0,4.99,0.00,27.6,26.9,00.0,36.6,29.4,10.3,0000.0,0011.21,0004.76,0004.03
2022-02-09 22:46:00,,0826.0,5.00,0.00,27.6,26.9,00.0,36.6,29.4,10.4,0000.0,0010.99,0004.76,0004.05
2022-02-09 22:47:00,,0826.0,5.01,0.00,27.6,26.9,00.0,36.6,29.4,10.4,0000.0,0010.83,0004.78,0004.06
2022-02-09 22:48:00,,0826.0,5.00,0.00,27.6,26.9,00.0,36.6,29.5,10.4,0000.0,0010.99,0004.79,0004.08
2022-02-09 22:49:00,,0826.0,4.99,0.00,27.6,26.9,00.0,36.6,29.5,10.4,0000.0,0011.19,0004.77,0004.10
2022-02-09 22:50:00,,0826.0,5.00,0.00,27.6,26.9,00.0,36.6,29.5,10.2,0000.0,0011.81,0004.76,0004.10
2022-02-09 22:51:00,,0826.1,5.01,0.00,27.6,26.9,00.0,36.6,29.4,10.2,0000.0,0011.28,0004.76,0004.10
2022-02-09 22:52:00,,0826.0,5.01,0.00,27.6,26.9,00.0,36.6,29.4,10.2,0000.0,0011.58,0004.75,0004.10
2022-02-09 22:53:00,,0826.2,4.98,0.00,27.6,26.8,00.0,36.6,29.4,10.2,0000.0,0011.52,0004.74,0004.09
2022-02-09 22:54:00,,0826.1,5.00,0.00,27.6,26.8,00.0,36.6,29.4,10.3,0000.0,0011.46,0004.75,0004.08
2022-02-09 22:55:00,,0826.1,5.00,0.00,27.6,26.8,00.0,36.6,29.4,10.4,0000.0,0010.96,0004.73,0004.08
2022-02-09 22:56:00,,0826.1,4.99,0.00,27.6,26.9,00.0,36.6,29.4,10.6,0000.0,0010.94,0004.73,0004.09
2022-02-09 22:57:00,,0826.1,5.00,0.00,27.6,26.9,00.0,36.6,29.5,10.5,0000.0,0011.25,0004.75,0004.08
2022-02-09 22:58:00,,0826.1,5.02,0.00,27.7,26.9,00.0,36.6,29.5,10.4,0000.0,0011.01,0004.72,0004.09
2022-02-09 22:59:00,,0826.2,5.00,0.00,27.7,26.9,00.0,36.6,29.5,10.3,0000.0,0010.74,0004.70,0004.08
